Date String (YYYY-MM-DD hh:mm:ss) UTC,Instrument flags,absolute air pressure of the measurement (hPa),sample flow rate (lpm),inlet stack bypass flow (lpm),air temperature of the measurement (°C),ambient temperature measured by the external sensor (°C),aerosol sample conditioner tube jacket temperature (°C),OPC LED temperature (°C),internal box temperature (°C),relative humidity of the measurement (%),span deviation,mass concentration of particles derived from Lorenz-Mie calculation of OPC scattering (μg/m³),mass concentration of particles derived from Lorenz-Mie calculation of OPC scattering (μg/m³),mass concentration of particles derived from Lorenz-Mie calculation of OPC scattering (μg/m³)
DateTimeUTC,F1_M11,P_M11,Q1_M11,Q2_M11,T1_M11,T2_M11,T3_M11,T4_M11,T5_M11,U1_M11,ZSPAN_M11,X0_M11,X2_M11,X1_M11
2023-09-03 03:00:00,SystemResetWarning,0833.0,5.00,000.00,027.4,025.0,000.0,035.8,028.9,23.3,0000.0,0006.71,0001.70,0001.14
2023-09-03 03:01:00,SystemResetWarning,0833.2,5.00,000.00,027.5,025.4,000.0,035.8,029.1,23.1,0000.0,0007.69,0001.68,0001.10
2023-09-03 03:02:00,SystemResetWarning,0833.2,5.00,000.00,027.5,025.7,000.0,035.8,029.2,23.2,0000.0,0007.77,0001.71,0001.06
2023-09-03 03:03:00,SystemResetWarning,0833.1,5.00,000.00,027.6,026.1,000.0,035.9,029.3,23.4,0000.0,0007.58,0001.69,0001.03
2023-09-03 03:04:00,SystemResetWarning,0833.1,4.99,000.00,027.7,026.4,000.0,035.9,029.4,23.8,0000.0,0007.45,0001.72,0001.01
2023-09-03 03:05:00,SystemResetWarning,0833.2,4.99,000.00,027.7,026.6,000.0,035.9,029.5,24.1,0000.0,0007.43,0001.68,0001.00
2023-09-03 03:06:00,SystemResetWarning,0833.2,5.00,000.00,027.8,026.8,000.0,036.0,029.6,24.3,0000.0,0007.43,0001.70,0001.01
2023-09-03 03:07:00,SystemResetWarning,0833.1,4.99,000.00,027.8,025.9,000.0,035.9,029.3,24.3,0000.0,0007.33,0001.79,0001.03
2023-09-03 03:08:00,SystemResetWarning,0833.2,5.00,000.00,027.6,024.4,000.0,035.9,028.7,24.0,0000.0,0007.48,0001.85,0001.06
2023-09-03 03:09:00,SystemResetWarning,0833.2,5.01,000.00,027.5,024.0,000.0,035.8,028.7,24.0,0000.0,0007.66,0001.90,0001.08
2023-09-03 03:10:00,SystemResetWarning,0833.1,5.01,000.00,027.5,024.3,000.0,035.8,028.7,24.2,0000.0,0008.02,0001.93,0001.11
2023-09-03 03:11:00,SystemResetWarning,0833.2,5.00,000.00,027.4,024.7,000.0,035.8,028.8,24.8,0000.0,0007.51,0001.98,0001.14
2023-09-03 03:12:00,SystemResetWarning,0833.2,5.00,000.00,027.5,025.1,000.0,035.8,029.0,25.4,0000.0,0005.90,0001.98,0001.17
2023-09-03 03:13:00,SystemResetWarning,0833.2,5.00,000.00,027.5,025.5,000.0,035.8,029.1,25.6,0000.0,0005.51,0001.98,0001.20
2023-09-03 03:14:00,SystemResetWarning,0833.2,4.99,000.00,027.5,025.8,000.0,035.9,029.2,26.4,0000.0,0006.14,0002.02,0001.24
2023-09-03 03:15:00,SystemResetWarning,0833.3,4.99,000.00,027.6,026.1,000.0,035.9,029.3,26.8,0000.0,0006.15,0002.05,0001.27
2023-09-03 03:16:00,SystemResetWarning,0833.3,5.01,000.00,027.6,026.4,000.0,035.9,029.4,26.9,0000.0,0006.88,0002.08,0001.29
2023-09-03 03:17:00,SystemResetWarning,0833.3,5.01,000.00,027.7,026.6,000.0,035.9,029.5,26.9,0000.0,0006.89,0002.11,0001.31
2023-09-03 03:18:00,SystemResetWarning,0833.3,5.00,000.00,027.8,026.8,000.0,036.0,029.5,27.2,0000.0,0006.75,0002.10,0001.32
2023-09-03 03:19:00,SystemResetWarning,0833.3,4.99,000.00,027.8,026.8,000.0,036.0,029.6,27.3,0000.0,0006.42,0002.05,0001.33
2023-09-03 03:20:00,SystemResetWarning,0833.3,4.98,000.00,027.8,025.6,000.0,036.0,029.2,27.5,0000.0,0006.16,0002.04,0001.36
2023-09-03 03:21:00,SystemResetWarning,0833.3,5.01,000.00,027.6,024.2,000.0,035.9,028.7,27.9,0000.0,0005.49,0002.05,0001.40
2023-09-03 03:22:00,SystemResetWarning,0833.3,5.01,000.00,027.5,024.0,000.0,035.8,028.7,28.0,0000.0,0005.24,0002.06,0001.42
2023-09-03 03:23:00,SystemResetWarning,0833.2,5.00,000.00,027.4,024.2,000.0,035.8,028.7,28.1,0000.0,0005.24,0002.06,0001.45
2023-09-03 03:24:00,SystemResetWarning,0833.2,5.00,000.00,027.4,024.7,000.0,035.8,028.8,28.2,0000.0,0005.12,0002.06,0001.49
2023-09-03 03:25:00,SystemResetWarning,0833.3,5.00,000.00,027.5,025.1,000.0,035.8,029.0,28.3,0000.0,0004.76,0002.09,0001.52
2023-09-03 03:26:00,SystemResetWarning,0833.3,4.99,000.00,027.5,025.5,000.0,035.9,029.1,28.4,0000.0,0005.04,0002.11,0001.55
2023-09-03 03:27:00,SystemResetWarning,0833.2,5.00,000.00,027.5,025.8,000.0,035.9,029.2,28.3,0000.0,0004.46,0002.15,0001.59
2023-09-03 03:28:00,SystemResetWarning,0833.2,5.00,000.00,027.6,026.1,000.0,035.9,029.3,28.3,0000.0,0004.38,0002.22,0001.65
2023-09-03 03:29:00,SystemResetWarning,0833.2,5.00,000.00,027.7,026.4,000.0,035.9,029.4,28.2,0000.0,0006.17,0002.35,0001.73
2023-09-03 03:30:00,SystemResetWarning,0833.2,5.00,000.00,027.7,026.6,000.0,036.0,029.5,27.8,0000.0,0007.61,0002.53,0001.81
2023-09-03 03:31:00,SystemResetWarning,0833.2,5.00,000.00,027.8,026.8,000.0,036.0,029.6,27.7,0000.0,0007.76,0002.68,0001.92
2023-09-03 03:32:00,SystemResetWarning,0833.2,5.00,000.00,027.8,026.9,000.0,036.0,029.6,27.4,0000.0,0007.83,0002.78,0002.01
2023-09-03 03:33:00,SystemResetWarning,0833.2,4.99,000.00,027.9,026.1,000.0,036.0,029.4,27.2,0000.0,0007.90,0002.88,0002.11
2023-09-03 03:34:00,SystemResetWarning,0833.2,5.00,000.00,027.7,024.5,000.0,035.9,028.8,27.4,0000.0,0008.08,0003.04,0002.23
2023-09-03 03:35:00,SystemResetWarning,0833.4,5.01,000.00,027.6,023.9,000.0,035.9,028.7,27.4,0000.0,0008.68,0003.16,0002.35
2023-09-03 03:36:00,SystemResetWarning,0832.9,5.01,000.00,027.5,024.1,000.0,035.9,028.7,27.5,0000.0,0008.68,0003.22,0002.46
2023-09-03 03:37:00,SystemResetWarning,0833.1,5.00,000.00,027.5,024.5,000.0,035.9,028.8,27.5,0000.0,0008.21,0003.27,0002.57
2023-09-03 03:38:00,SystemResetWarning,0833.0,5.00,000.00,027.5,024.9,000.0,035.9,029.0,27.1,0000.0,0008.36,0003.33,0002.67
2023-09-03 03:39:00,SystemResetWarning,0833.2,4.99,000.00,027.5,025.4,000.0,035.9,029.1,27.4,0000.0,0008.70,0003.40,0002.74
2023-09-03 03:40:00,SystemResetWarning,0833.3,4.99,000.00,027.6,025.7,000.0,035.9,029.2,27.2,0000.0,0008.16,0003.39,0002.80
2023-09-03 03:41:00,SystemResetWarning,0833.4,5.01,000.00,027.6,026.1,000.0,035.9,029.3,27.2,0000.0,0007.29,0003.38,0002.83
2023-09-03 03:42:00,SystemResetWarning,0833.4,5.01,000.00,027.7,026.3,000.0,036.0,029.4,27.1,0000.0,0007.33,0003.33,0002.80
2023-09-03 03:43:00,SystemResetWarning,0833.3,5.00,000.00,027.7,026.6,000.0,036.0,029.5,26.9,0000.0,0007.32,0003.31,0002.75
2023-09-03 03:44:00,SystemResetWarning,0833.0,5.00,000.00,027.8,026.8,000.0,036.0,029.6,26.5,0000.0,0007.24,0003.26,0002.69
2023-09-03 03:45:00,SystemResetWarning,0833.0,5.00,000.00,027.8,026.9,000.0,036.0,029.6,26.4,0000.0,0007.28,0003.24,0002.63
2023-09-03 03:46:00,SystemResetWarning,0833.0,4.98,000.00,027.8,025.8,000.0,036.0,029.3,26.2,0000.0,0006.05,0003.16,0002.55
2023-09-03 03:47:00,SystemResetWarning,0833.1,5.02,000.00,027.7,024.8,000.0,035.9,029.1,26.2,0000.0,0005.91,0003.12,0002.46
2023-09-03 03:48:00,SystemResetWarning,0833.2,5.01,000.00,027.7,024.9,000.0,035.9,029.0,26.5,0000.0,0005.81,0003.03,0002.37
2023-09-03 03:49:00,SystemResetWarning,0833.3,5.00,000.00,027.6,025.1,000.0,036.0,029.0,26.5,0000.0,0005.53,0002.89,0002.28
2023-09-03 03:50:00,SystemResetWarning,0833.3,5.00,000.00,027.7,025.5,000.0,036.0,029.2,26.2,0000.0,0004.90,0002.75,0002.19
2023-09-03 03:51:00,SystemResetWarning,0833.3,5.00,000.00,027.7,025.8,000.0,036.0,029.3,26.4,0000.0,0004.46,0002.68,0002.12
2023-09-03 03:52:00,SystemResetWarning,0833.2,5.00,000.00,027.7,026.1,000.0,036.0,029.4,26.4,0000.0,0004.12,0002.56,0002.04
2023-09-03 03:53:00,SystemResetWarning,0833.1,5.00,000.00,027.8,026.4,000.0,036.1,029.5,26.6,0000.0,0003.74,0002.51,0002.00
2023-09-03 03:54:00,SystemResetWarning,0833.0,5.00,000.00,027.8,026.6,000.0,036.1,029.6,26.8,0000.0,0003.68,0002.47,0001.95
2023-09-03 03:55:00,SystemResetWarning,0833.1,5.01,000.00,027.9,026.8,000.0,036.1,029.7,26.8,0000.0,0003.66,0002.45,0001.92
2023-09-03 03:56:00,SystemResetWarning,0833.2,5.00,000.00,027.9,026.7,000.0,036.1,029.7,26.8,0000.0,0003.46,0002.36,0001.89
2023-09-03 03:57:00,SystemResetWarning,0833.0,4.98,000.00,027.9,025.3,000.0,036.1,029.2,27.0,0000.0,0003.32,0002.29,0001.85
2023-09-03 03:58:00,SystemResetWarning,0833.4,5.00,000.00,027.7,024.1,000.0,036.0,028.8,27.3,0000.0,0003.38,0002.29,0001.82
2023-09-03 03:59:00,SystemResetWarning,0833.3,5.01,000.00,027.7,024.0,000.0,036.0,028.8,27.5,0000.0,0003.38,0002.28,0001.80
